This is the latest recevied weather packets stored in our database for station/object JQ3CCU-10. If no packets are shown the sender has not sent any weather packets the latest 10 day(s).
| Time | Temp. | Humidity | Pressure | Rain* | Wind** | Luminosity | Snow |
|---|---|---|---|---|---|---|---|
| 1777965855 | 25° C | 52% | - | - | 0 m/s | - | - |
| 1777964055 | 25° C | 52% | - | - | 0 m/s | - | - |
| 1777962255 | 24.44° C | 53% | - | - | 0 m/s | - | - |
| 1777960455 | 24.44° C | 53% | - | - | 0 m/s | - | - |
| 1777958655 | 24.44° C | 53% | - | - | 0 m/s | - | - |
| 1777956855 | 24.44° C | 53% | - | - | 0 m/s | - | - |
| 1777955055 | 24.44° C | 52% | - | - | 0 m/s | - | - |
| 1777953255 | 24.44° C | 52% | - | - | 0 m/s | - | - |
| 1777951455 | 24.44° C | 51% | - | - | 0 m/s | - | - |
| 1777949655 | 24.44° C | 51% | - | - | 0 m/s | - | - |
| 1777947855 | 25° C | 48% | - | - | 0 m/s | - | - |
| 1777946055 | 25° C | 48% | - | - | 0 m/s | - | - |
| 1777944255 | 29.44° C | 39% | - | - | 0 m/s | - | - |
| 1777942455 | 29.44° C | 39% | - | - | 0 m/s | - | - |
| 1777940655 | 31.11° C | 35% | - | - | 0 m/s | - | - |
| 1777938855 | 31.11° C | 35% | - | - | 0 m/s | - | - |
| 1777937055 | 30° C | 36% | - | - | 0 m/s | - | - |
| 1777935255 | 30° C | 36% | - | - | 0 m/s | - | - |
| 1777933455 | 23.33° C | 50% | - | - | 0 m/s | - | - |
| 1777931655 | 23.33° C | 50% | - | - | 0 m/s | - | - |
| 1777929855 | 18.89° C | 64% | - | - | 0 m/s | - | - |
| 1777928055 | 18.89° C | 64% | - | - | 0 m/s | - | - |
| 1777926255 | 17.22° C | 69% | - | - | 0 m/s | - | - |
| 1777924455 | 17.22° C | 69% | - | - | 0 m/s | - | - |
| 1777922655 | 17.78° C | 69% | - | - | 0 m/s | - | - |
* Rain since midnight (hover to see other rain measurements)
** Current wind speed in m/s (hover to see current wind gust speed)